Location: Black Kettle National Grasslands
(35.7000°N, 99.8000°W)
Time: 07:36:14
(UTC-05:00)

Envisat - Visible Passes

Search period start: 17 September 2019 00:00
Search period end: 27 September 2019 00:00
Orbit: 764 x 766 km, 98.1° (Epoch: 17 September)

Date Brightness Start Highest point End Pass type
(mag) Time Alt. Az. Time Alt. Az. Time Alt. Az.
17 Sep 6.0 21:16:34 10° WSW 21:19:01 13° W 21:21:29 10° WNW visible
18 Sep 4.9 20:37:29 10° SSW 20:41:59 32° W 20:46:31 10° NW visible
19 Sep 3.3 20:00:04 10° S 20:05:08 77° WSW 20:10:14 10° NNW visible
20 Sep 5.9 21:04:18 10° SW 21:07:40 18° W 21:11:02 10° NW visible
21 Sep 4.4 20:25:55 10° S 20:30:41 41° W 20:35:29 10° NNW visible
23 Sep 5.5 20:52:22 10° SSW 20:56:19 23° W 21:00:17 10° NW visible
24 Sep 3.9 20:14:27 10° S 20:19:24 54° W 20:24:22 10° NNW visible
25 Sep 6.1 21:20:07 10° WSW 21:22:03 12° W 21:24:00 10° WNW visible
26 Sep 5.1 20:40:37 10° SSW 20:45:00 29° W 20:49:24 10° NW visible
